This demonstration page uses our WeatherBlox Daily Observations layout. Learn more.

Left ArrowRight Arrow

Hourly Observations for April 20, 2021

Temp ( °F °C ) Dew Point ( °F °C ) Humidity (%) Winds ( mph kmh ) Pressure ( in mb ) Visibility ( mi km ) Precip ( " mm )
12:15 am 00:15 Cloudy with Light Snow 30 -1.1 28 -2.2 92 92 NW 10 17 30.30 1026 3 5 0.00 0.00
12:32 am 00:32 Cloudy with Light Snow 32 0 25 -3.9 75 75 N 13 20 30.29 1026 6 10 0.00 0.00
12:53 am 00:53 Cloudy 32 0 23 -5 69 69 N 9 15 30.24 1024 9 14 0.00 0.00
1:53 am 01:53 Cloudy 32 0 24 -4.4 73 73 NW 7 11 30.25 1025 10 16 0.00 0.00
2:53 am 02:53 Mostly Clear 31 -0.6 24 -4.4 76 76 NNW 10 17 30.24 1024 10 16 0.00 0.00
3:53 am 03:53 Clear 31 -0.6 24 -4.4 76 76 NNW 10 17 30.26 1025 10 16 0.00 0.00
4:53 am 04:53 Clear 30 -1.1 24 -4.4 79 79 NW 8 13 30.27 1025 10 16 0.00 0.00
5:53 am 05:53 Clear 29 -1.7 24 -4.4 82 82 NW 10 17 30.27 1025 10 16 0.00 0.00
6:53 am 06:53 Sunny 27 -2.8 24 -4.4 89 89 NNW 9 15 30.29 1026 10 16 0.00 0.00
7:53 am 07:53 Sunny 28 -2.2 24 -4.4 85 85 NW 7 11 30.29 1026 10 16 0.00 0.00
8:53 am 08:53 Sunny 30 -1.1 25 -3.9 82 82 NW 9 15 30.30 1026 10 16 0.00 0.00
9:53 am 09:53 Sunny 33 0.6 25 -3.9 72 72 NW 8 13 30.29 1026 10 16 0.00 0.00
10:53 am 10:53 Sunny 38 3.3 26 -3.3 62 62 undefined N/A 30.28 1025 10 16 0.00 0.00
11:53 am 11:53 Partly Cloudy 40 4.4 24 -4.4 53 53 WNW 12 19 30.27 1025 10 16 0.00 0.00
12:53 pm 12:53 Cloudy 42 5.6 22 -5.6 45 45 WNW 8 13 30.24 1024 10 16 0.00 0.00
1:53 pm 13:53 Cloudy with Light Rain 40 4.4 26 -3.3 58 58 WSW 5 7 30.23 1024 9 14 0.00 0.00
2:12 pm 14:12 Cloudy with Light Snow 37 2.8 31 -0.6 79 79 WNW 9 15 30.25 1024 2 3 0.01 0.25
2:18 pm 14:18 Cloudy with Snow 35 1.7 31 -0.6 85 85 W 9 15 30.27 1025 1 1 0.03 0.76
2:30 pm 14:30 Mostly Cloudy with Light Snow 36 2.2 33 0.6 89 89 S 3 6 30.25 1024 2 3 0.06 1.52
2:36 pm 14:36 Mostly Cloudy with Light Snow 38 3.3 32 0 79 79 S 5 7 30.24 1024 9 14 0.06 1.52
2:53 pm 14:53 Mostly Cloudy with Light Rain 38 3.3 32 0 79 79 SW 9 15 30.22 1024 10 16 0.06 1.52
3:29 pm 15:29 Cloudy with Light Rain 39 3.9 29 -1.7 67 67 undefined N/A 30.22 1024 3 4 0.00 0.00
3:36 pm 15:36 Cloudy with Light Snow 37 2.8 30 -1.1 76 76 NNW 10 17 30.23 1024 2 2 0.00 0.00
3:39 pm 15:39 Cloudy with Light Snow 37 2.8 31 -0.6 79 79 N 8 13 30.23 1024 2 3 0.00 0.00
3:41 pm 15:41 Cloudy with Light Snow 38 3.3 31 -0.6 76 76 N 6 9 30.23 1024 3 5 0.00 0.00
3:53 pm 15:53 Partly Cloudy 40 4.4 33 0.6 77 77 Calm 30.20 1023 10 16 0.00 0.00
4:40 pm 16:40 Cloudy with Light Snow 37 2.8 30 -1.1 76 76 W 13 20 30.21 1023 3 5 0.01 0.25
4:53 pm 16:53 Cloudy with Light Snow 38 3.3 32 0 79 79 W 10 17 30.20 1023 5 8 0.01 0.25
5:07 pm 17:07 Partly Cloudy 41 5 33 0.6 73 73 W 10 17 30.20 1023 9 14 0.00 0.00
5:53 pm 17:53 Partly Cloudy 41 5 31 -0.6 67 67 WNW 9 15 30.19 1022 10 16 0.00 0.00
6:53 pm 18:53 Mostly Cloudy 43 6.1 30 -1.1 60 60 NNW 12 19 30.21 1023 10 16 0.00 0.00
7:53 pm 19:53 Partly Cloudy 38 3.3 30 -1.1 73 73 N 13 20 30.22 1024 10 16 0.00 0.00
8:53 pm 20:53 Mostly Cloudy 35 1.7 30 -1.1 82 82 NNW 6 9 30.24 1024 10 16 0.00 0.00
9:53 pm 21:53 Clear 32 0 29 -1.7 88 88 WNW 6 9 30.27 1025 10 16 0.00 0.00
10:53 pm 22:53 Clear 32 0 28 -2.2 85 85 NW 7 11 30.28 1025 10 16 0.00 0.00
11:53 pm 23:53 Clear 30 -1.1 25 -3.9 82 82 WNW 6 9 30.28 1026 10 16 0.00 0.00

Powered by AerisWeather